Terminal Aerodrome Forecast
Issued by NWS Charleston, WV

Home | Current Version | Previous Version | Text Only | Print | Product List | Glossary On
Versions: 1 2 3 4 5 6 7 8 9 10 11 12 13 14 15 16 17 18 19 20 21 22 23 24 25 26 27 28 29 30 31 32 33 34 35 36 37
000
FTUS41 KRLX 200800 AAA
TAFEKN
TAF AMD
KEKN 200840Z 2009/2106 00000KT 4SM BR SCT001
      TEMPO 2009/2012 2SM BR BKN001
     FM201300 00000KT 3SM BR SCT020
     FM201500 24004KT P6SM BKN070
     FM202100 24008G15KT P6SM BKN050
     FM210000 22005KT P6SM BKN050
     FM210500 24005KT 5SM BR OVC020=

USA.gov is the U.S. government's official web portal to all federal, state and local government web resources and services.